Temp
-9 -9 -9 -9 -9 -8 -8 -7 -6 -4 -4 -4 -4 -4 -2 -3 -0 -1 0 1 2 3 3 3 2 3 4 4 2 3 2 3 2 2 1 2 1 2 2 3 1 3 3 2
-10 -9 -9 -9 -9 -9 -8 -7 -5 -4 -4 -5 -5 -3 -5 -3 -1 -1 0 1 1 2 2 2 2 3 3 3 3 2 2 2 0 -0 -0 1 1 1 2 3 3 2 0 1
-10 -9 -10 -9 -9 -9 -8 -8 -6 -4 -4 -5 -3 -5 -5 -5 -2 -1 -0 -0 0 1 1 2 3 2 2 3 3 2 2 2 2 1 3 3 1 2 1 2 2 2 3 3
-10 -10 -10 -10 -9 -9 -8 -8 -6 -5 -4 -5 -4 -4 -5 -5 -4 -3 -2 -2 -0 -0 -0 1 1 1 1 1 2 1 1 1 1 1 2 3 3 4 3 1 2 1 2 2
-10 -10 -10 -10 -9 -9 -8 -8 -7 -6 -5 -5 -5 -5 -5 -5 -4 -3 -3 -2 -2 -2 -1 -0 1 1 0 1 1 2 1 1 1 0 1 1 1 2 1 1 1 1 1 1
-10 -10 -10 -9 -10 -9 -9 -8 -8 -7 -6 -5 -5 -5 -5 -4 -4 -4 -3 -3 -2 -2 -1 -2 -2 -1 -0 -0 -0 -0 1 1 0 -1 -0 -0 -0 0 0 1 1 1 0 1
-10 -10 -10 -10 -9 -9 -9 -9 -8 -7 -7 -6 -5 -5 -4 -4 -4 -3 -3 -4 -3 -3 -2 -2 -1 -1 -1 -1 -1 -0 -0 -1 -1 -0 -2 -4 -1 -0 0 0 0 0 1 0
-10 -10 -10 -10 -10 -9 -9 -9 -8 -8 -7 -7 -6 -5 -5 -5 -5 -5 -5 -4 -3 -3 -3 -2 -2 -3 -3 -2 -2 -2 -1 -2 -2 -2 -3 -2 -2 -2 -2 -1 -1 -1 -1 -2
-10 -10 -9 -9 -9 -9 -9 -9 -8 -8 -7 -7 -7 -6 -6 -5 -5 -5 -5 -5 -4 -4 -4 -5 -5 -5 -4 -4 -4 -3 -3 -3 -3 -4 -4 -5 -3 -3 -4 -3 -3 -3 -4 -4
-10 -10 -9 -9 -9 -9 -9 -9 -8 -8 -8 -7 -7 -6 -6 -6 -5 -5 -5 -5 -5 -4 -4 -5 -5 -6 -5 -5 -5 -6 -6 -5 -5 -5 -5 -6 -6 -6 -6 -6 -5 -4 -5 -5
-11 -11 -10 -9 -9 -9 -9 -9 -9 -8 -8 -8 -8 -7 -7 -7 -6 -6 -7 -6 -6 -5 -4 -5 -6 -7 -7 -7 -7 -7 -6 -6 -7 -7 -7 -7 -6 -7 -6 -7 -6 -6 -6 -7
-11 -11 -11 -10 -10 -10 -9 -9 -9 -9 -8 -8 -8 -8 -7 -7 -7 -6 -7 -7 -7 -7 -6 -7 -7 -8 -8 -7 -8 -8 -7 -7 -6 -7 -7 -7 -7 -7 -8 -8 -7 -7 -8 -8
-11 -11 -11 -11 -11 -10 -10 -9 -9 -9 -8 -8 -8 -8 -8 -8 -7 -7 -7 -7 -7 -7 -7 -7 -8 -8 -7 -8 -7 -7 -7 -7 -7 -7 -8 -8 -8 -8 -8 -8 -8 -9 -9 -9
-11 -11 -12 -11 -11 -10 -10 -10 -9 -9 -9 -9 -9 -9 -8 -8 -8 -8 -8 -8 -8 -8 -8 -8 -7 -7 -7 -8 -7 -8 -8 -8 -8 -8 -8 -8 -8 -8 -8 -9 -9 -10 -10 -10
-12 -12 -12 -12 -11 -10 -10 -10 -10 -9 -9 -9 -9 -9 -9 -9 -9 -9 -9 -9 -9 -8 -7 -7 -7 -7 -8 -8 -8 -8 -8 -8 -9 -9 -9 -9 -9 -9 -9 -9 -10 -10 -11 -11
-12 -12 -12 -11 -11 -10 -10 -10 -10 -10 -9 -9 -9 -9 -9 -9 -9 -9 -9 -9 -8 -8 -8 -8 -8 -8 -8 -8 -9 -9 -9 -9 -9 -9 -9 -9 -10 -10 -10 -10 -10 -11 -11 -11
-12 -12 -12 -12 -11 -11 -10 -10 -10 -10 -10 -10 -10 -10 -10 -10 -10 -9 -9 -9 -9 -9 -9 -9 -9 -9 -9 -9 -9 -9 -9 -9 -10 -10 -10 -10 -10 -11 -11 -11 -11 -12 -12 -12
-13 -12 -12 -12 -11 -11 -11 -11 -11 -11 -10 -10 -10 -11 -10 -10 -10 -10 -10 -10 -10 -9 -10 -9 -9 -10 -10 -10 -10 -10 -10 -10 -10 -11 -11 -11 -12 -12 -12 -12 -12 -12 -12 -12
-13 -13 -12 -12 -12 -12 -12 -12 -11 -11 -11 -11 -11 -11 -11 -11 -10 -10 -10 -10 -10 -10 -11 -11 -10 -11 -11 -11 -10 -10 -10 -11 -11 -12 -12 -12 -12 -12 -12 -13 -13 -13 -13 -13
-13 -13 -13 -12 -12 -12 -12 -12 -12 -11 -11 -11 -11 -11 -11 -11 -11 -11 -11 -11 -11 -11 -11 -11 -11 -11 -11 -11 -11 -11 -12 -12 -12 -12 -13 -13 -13 -13 -13 -13 -13 -13 -13 -14
-13 -13 -13 -13 -12 -12 -12 -12 -12 -12 -12 -12 -12 -11 -11 -11 -11 -11 -11 -11 -12 -12 -12 -12 -12 -11 -11 -11 -12 -12 -13 -13 -13 -13 -13 -13 -13 -13 -14 -14 -14 -14 -14 -14
-14 -13 -13 -13 -13 -13 -13 -13 -12 -12 -12 -12 -12 -12 -12 -12 -12 -12 -13 -12 -12 -13 -13 -13 -13 -11 -11 -12 -12 -12 -13 -13 -14 -14 -14 -14 -14 -14 -14 -15 -15 -15 -15 -15
-14 -14 -14 -14 -14 -14 -14 -13 -13 -13 -13 -13 -13 -13 -14 -14 -14 -14 -13 -13 -14 -14 -14 -14 -12 -12 -12 -12 -13 -13 -14 -14 -14 -14 -15 -15 -15 -15 -15 -15 -15 -16 -16 -16
-14 -14 -15 -14 -14 -14 -14 -14 -14 -14 -14 -14 -14 -14 -14 -15 -15 -14 -14 -15 -14 -15 -14 -13 -13 -13 -14 -14 -14 -15 -15 -15 -15 -16 -16 -16 -16 -16 -16 -16 -17 -17 -17 -17
-15 -15 -15 -15 -15 -15 -15 -14 -14 -14 -14 -14 -14 -15 -15 -15 -15 -15 -15 -15 -15 -15 -15 -14 -14 -14 -15 -15 -16 -16 -16 -16 -16 -16 -16 -16 -17 -17 -17 -17 -17 -17 -17 -17
-16 -16 -16 -16 -15 -15 -15 -15 -15 -15 -15 -15 -15 -15 -15 -15 -15 -15 -15 -15 -15 -14 -14 -15 -15 -15 -16 -16 -16 -16 -16 -16 -17 -17 -17 -17 -17 -17 -17 -18 -18 -18 -18 -18
-17 -17 -17 -17 -17 -16 -16 -16 -16 -16 -16 -15 -15 -15 -15 -15 -15 -15 -15 -15 -15 -15 -15 -16 -16 -17 -17 -17 -17 -17 -17 -18 -18 -18 -18 -18 -18 -18 -18 -18 -18 -19 -19 -19
Height
2952 2950 2947 2944 2940 2935 2936 2934 2933 2934 2939 2939 2947 2952 2959 2973 2981 2986 2994 3000 3006 3010 3015 3017 3023 3028 3034 3037 3040 3043 3053 3057 3060 3061 3063 3068 3070 3072 3074 3075 3077 3077 3077 3078
2949 2947 2944 2940 2936 2933 2928 2925 2923 2926 2929 2927 2939 2947 2959 2969 2979 2983 2988 2993 2999 3006 3010 3015 3019 3023 3029 3033 3036 3039 3045 3049 3054 3059 3061 3062 3063 3065 3068 3070 3070 3069 3074 3076
2947 2945 2942 2938 2933 2927 2923 2921 2920 2918 2923 2925 2935 2941 2949 2961 2969 2976 2982 2989 2995 3000 3006 3009 3013 3019 3024 3029 3033 3037 3040 3042 3043 3044 3046 3051 3053 3057 3061 3064 3064 3066 3066 3069
2945 2942 2939 2936 2930 2923 2919 2917 2915 2911 2912 2920 2927 2935 2946 2952 2962 2969 2975 2982 2989 2996 3003 3005 3010 3016 3019 3024 3029 3035 3038 3039 3040 3041 3045 3047 3048 3051 3054 3055 3059 3062 3063 3066
2944 2941 2937 2934 2928 2923 2918 2916 2914 2909 2911 2917 2925 2932 2939 2944 2954 2962 2968 2976 2985 2991 2997 3001 3006 3011 3017 3021 3026 3030 3033 3034 3036 3039 3042 3044 3045 3046 3048 3052 3054 3057 3059 3061
2943 2939 2936 2932 2928 2922 2918 2916 2913 2910 2910 2916 2921 2925 2931 2939 2951 2958 2966 2975 2983 2987 2993 2997 3002 3007 3011 3017 3021 3026 3030 3031 3033 3035 3037 3040 3041 3041 3044 3047 3048 3051 3051 3055
2942 2939 2936 2932 2928 2924 2921 2918 2916 2914 2914 2914 2917 2922 2929 2938 2946 2954 2962 2970 2977 2984 2989 2996 3000 3001 3005 3009 3012 3018 3023 3025 3028 3030 3033 3037 3029 3034 3037 3039 3041 3043 3045 3047
2941 2938 2935 2932 2928 2925 2922 2919 2918 2917 2916 2915 2917 2921 2927 2936 2942 2947 2957 2965 2971 2977 2983 2990 2993 2997 3001 3004 3008 3012 3016 3019 3022 3025 3026 3026 3024 3025 3029 3031 3033 3035 3037 3038
2939 2936 2934 2930 2927 2925 2922 2919 2918 2918 2918 2918 2917 2918 2921 2926 2932 2940 2947 2957 2963 2969 2976 2984 2986 2991 2996 3002 3003 3004 3009 3012 3018 3020 3021 3021 3016 3017 3020 3023 3027 3027 3030 3032
2938 2935 2932 2930 2927 2924 2923 2921 2919 2919 2917 2915 2915 2917 2921 2922 2925 2932 2938 2947 2956 2961 2967 2971 2977 2982 2988 2988 2990 2995 2998 3003 3006 3009 3011 3011 3010 3013 3016 3022 3024 3022 3025 3028
2936 2934 2932 2929 2928 2925 2924 2922 2920 2919 2920 2920 2921 2923 2923 2921 2925 2928 2934 2941 2946 2953 2959 2964 2969 2973 2977 2981 2984 2986 2991 2995 2999 3002 3005 3008 3010 3013 3017 3018 3018 3022 3024 3026
2936 2933 2931 2929 2928 2927 2925 2923 2920 2921 2922 2923 2922 2920 2923 2925 2928 2931 2933 2937 2940 2945 2950 2956 2960 2965 2970 2974 2980 2985 2990 2991 2994 2999 3001 3003 3006 3010 3013 3015 3018 3021 3023 3025
2935 2932 2930 2928 2927 2926 2925 2923 2921 2922 2923 2923 2924 2926 2926 2927 2931 2932 2937 2938 2941 2943 2946 2952 2956 2963 2967 2972 2976 2979 2984 2987 2991 2996 3000 3003 3006 3009 3011 3013 3015 3017 3020 3021
2935 2932 2929 2928 2926 2925 2924 2923 2921 2922 2923 2925 2928 2928 2928 2931 2934 2936 2939 2941 2944 2948 2951 2953 2958 2963 2967 2970 2974 2980 2984 2988 2991 2993 2997 3001 3004 3006 3008 3010 3012 3013 3015 3016
2937 2933 2930 2927 2926 2925 2924 2923 2922 2923 2927 2927 2927 2929 2932 2934 2936 2939 2942 2945 2949 2951 2953 2956 2960 2963 2968 2971 2975 2979 2983 2988 2991 2991 2994 2997 3000 3002 3004 3006 3007 3008 3009 3009
2938 2935 2931 2928 2925 2924 2924 2924 2925 2924 2925 2925 2927 2930 2932 2935 2938 2941 2944 2946 2948 2951 2954 2958 2961 2964 2968 2971 2975 2980 2983 2986 2989 2990 2992 2993 2995 2997 2999 3000 3001 3001 3002 3002
2938 2936 2933 2931 2928 2926 2926 2927 2926 2925 2924 2924 2927 2929 2932 2936 2940 2942 2943 2946 2949 2952 2954 2958 2962 2965 2968 2971 2974 2978 2981 2984 2985 2986 2988 2989 2990 2992 2993 2994 2995 2996 2996 2996
2937 2936 2934 2931 2930 2928 2928 2928 2927 2926 2925 2926 2927 2929 2933 2936 2938 2940 2943 2946 2949 2952 2954 2957 2961 2964 2967 2969 2972 2974 2977 2980 2981 2982 2983 2984 2985 2986 2987 2987 2988 2989 2989 2989
2936 2935 2934 2932 2931 2930 2929 2928 2927 2927 2929 2927 2928 2930 2933 2935 2935 2938 2942 2945 2948 2951 2952 2956 2960 2961 2964 2966 2969 2970 2973 2975 2976 2977 2979 2979 2979 2979 2980 2982 2981 2981 2981 2981
2934 2933 2932 2932 2931 2929 2929 2928 2928 2927 2928 2929 2931 2933 2934 2935 2935 2938 2942 2944 2948 2948 2951 2953 2954 2956 2960 2963 2966 2967 2969 2970 2972 2972 2973 2974 2975 2975 2974 2975 2974 2973 2972 2971
2933 2931 2930 2930 2929 2929 2928 2928 2928 2928 2929 2929 2930 2932 2933 2934 2935 2937 2941 2942 2946 2947 2948 2950 2949 2951 2956 2958 2961 2962 2963 2965 2967 2967 2967 2968 2970 2969 2969 2968 2968 2967 2965 2963
2930 2930 2929 2928 2927 2927 2927 2926 2927 2926 2927 2927 2928 2930 2931 2932 2935 2938 2940 2942 2944 2945 2945 2946 2945 2949 2951 2954 2957 2958 2959 2961 2962 2961 2961 2962 2963 2964 2964 2961 2960 2958 2956 2954
2928 2928 2928 2927 2927 2927 2927 2926 2926 2926 2926 2927 2927 2929 2930 2932 2936 2937 2940 2940 2941 2943 2942 2942 2943 2945 2948 2951 2953 2954 2955 2957 2956 2957 2957 2957 2957 2957 2956 2953 2949 2947 2945 2942
2926 2926 2927 2927 2927 2926 2926 2927 2927 2927 2927 2927 2927 2928 2930 2931 2934 2936 2938 2939 2941 2940 2939 2939 2941 2944 2946 2948 2950 2951 2952 2952 2952 2952 2952 2951 2949 2947 2945 2942 2940 2937 2934 2931
2926 2926 2926 2926 2926 2926 2926 2925 2926 2926 2926 2927 2927 2928 2930 2931 2933 2934 2936 2937 2937 2937 2936 2938 2940 2942 2943 2945 2946 2947 2947 2947 2947 2946 2944 2942 2940 2938 2936 2933 2929 2926 2923 2920
2926 2926 2926 2925 2925 2924 2924 2924 2924 2924 2925 2926 2927 2927 2928 2929 2929 2930 2930 2932 2932 2932 2934 2936 2937 2939 2940 2941 2942 2942 2942 2941 2939 2937 2936 2933 2931 2929 2926 2924 2920 2918 2914 2911
2927 2926 2925 2924 2924 2923 2922 2922 2922 2922 2922 2923 2924 2924 2924 2924 2925 2926 2926 2927 2928 2929 2931 2932 2934 2935 2936 2937 2937 2936 2935 2933 2932 2930 2927 2926 2924 2921 2919 2916 2913 2909 2905 2901
Wind_Speed
17 18 18 21 28 35 28 20 25 24 48 57 58 57 64 45 45 24 34 39 30 21 25 33 34 28 20 21 27 38 36 22 18 30 21 31 31 29 33 15 9 16 4 5
16 17 17 21 31 28 19 16 24 34 39 50 61 66 58 36 45 34 31 33 31 30 28 18 24 28 24 16 22 23 40 16 10 8 16 19 34 36 33 32 14 18 8 6
14 15 16 18 28 25 19 12 11 43 55 50 56 62 56 49 46 48 36 30 26 24 22 26 23 23 24 23 22 24 25 24 21 20 15 23 33 36 37 35 22 15 21 13
16 16 17 20 25 26 10 10 10 22 40 43 57 55 41 52 51 48 36 36 35 29 22 24 25 26 24 24 24 28 22 23 24 14 19 16 18 25 34 42 39 24 26 25
17 16 17 19 22 22 11 11 8 9 4 44 51 39 42 37 55 51 49 39 36 31 29 30 31 24 21 20 23 26 29 16 21 18 16 16 16 18 20 26 30 32 29 25
16 14 15 18 18 21 19 10 7 3 16 21 48 43 48 43 35 42 48 44 42 38 35 33 31 36 45 44 39 30 32 30 21 10 17 17 18 24 21 19 20 21 25 27
17 14 15 17 16 19 19 11 7 4 1 20 31 37 37 44 48 43 42 38 31 29 31 28 26 24 25 24 29 31 27 26 23 11 12 4 17 19 25 26 30 32 35 34
18 17 17 15 16 13 16 13 7 4 3 4 13 29 38 35 42 51 47 46 39 35 31 31 24 20 17 19 23 25 26 24 14 10 17 16 20 21 20 27 30 33 35 34
19 17 17 16 13 12 15 16 5 4 2 5 6 7 15 32 43 44 49 45 44 46 45 33 27 20 31 23 26 31 30 29 24 17 8 10 19 21 19 20 21 24 23 20
18 15 15 15 13 12 9 12 5 5 3 6 8 10 10 19 36 49 49 51 43 40 40 31 16 14 22 14 24 25 25 26 31 26 12 10 13 15 15 13 9 15 16 15
18 16 11 12 12 11 12 12 5 6 7 8 11 12 15 18 19 39 35 45 43 37 29 23 13 12 16 14 15 16 18 16 11 11 5 5 13 13 10 6 5 7 7 8
19 16 12 10 9 9 10 10 4 6 10 9 7 9 10 11 18 17 34 23 28 18 19 12 11 14 15 19 14 15 11 9 9 8 7 7 12 8 9 9 6 5 7 9
19 16 14 9 6 7 8 8 4 6 9 11 9 9 9 11 13 16 21 13 18 16 15 15 12 8 19 15 12 20 16 13 12 13 13 15 14 11 9 7 6 7 11 13
17 16 12 7 5 7 5 7 2 10 16 13 13 8 7 8 10 15 10 11 10 12 14 13 13 12 16 13 11 18 15 16 14 13 16 15 13 12 11 10 11 12 14 17
19 14 11 8 5 6 6 7 4 13 19 17 17 14 12 11 11 12 11 11 12 13 14 12 15 14 17 16 16 16 16 17 16 16 14 14 13 13 12 12 14 16 18 21
14 16 11 10 7 6 4 3 1 3 17 13 19 17 16 15 15 14 14 11 10 10 11 12 14 14 10 13 11 13 15 14 13 11 12 12 12 13 14 17 18 20 21 23
11 10 10 9 8 5 4 1 2 2 2 12 17 18 18 16 16 14 13 12 11 10 11 11 10 10 9 9 8 8 10 10 10 10 12 14 14 16 17 19 21 23 24 26
7 8 10 8 4 7 3 2 4 5 1 7 5 7 18 19 17 16 13 12 11 11 12 12 12 12 11 8 9 11 11 13 13 14 15 17 18 18 19 21 22 24 27 30
8 8 6 6 6 2 2 1 1 1 3 3 3 9 9 14 13 15 14 12 11 9 11 11 9 11 9 8 10 11 14 17 16 16 17 18 19 18 20 23 26 27 28 30
11 8 7 5 3 3 4 3 3 2 2 4 4 3 3 7 10 11 8 8 9 6 10 9 13 14 13 12 13 14 15 16 16 17 18 19 20 22 23 25 26 27 27 27
10 8 6 5 5 6 5 4 3 4 3 6 9 10 9 8 9 10 9 6 6 5 8 9 6 8 11 13 15 15 15 16 17 17 17 18 18 18 19 20 22 24 25 27
10 9 8 6 5 3 3 3 3 3 3 3 5 9 10 10 9 7 9 6 8 5 7 8 4 11 11 12 13 13 14 14 14 13 14 15 16 18 19 21 25 30 33 36
10 8 4 3 1 2 2 2 1 2 2 2 4 6 10 9 9 6 6 5 5 4 6 5 8 11 11 12 13 12 12 12 12 12 13 15 18 21 25 30 34 35 34 35
6 3 3 3 1 1 2 3 2 3 3 2 4 5 7 9 10 5 4 6 5 4 5 8 11 12 12 12 12 11 10 10 11 13 17 22 26 29 30 31 32 33 33 33
3 2 2 3 3 3 3 2 3 4 4 4 6 9 6 11 6 7 6 7 5 8 7 10 9 10 11 10 9 8 9 13 18 21 24 25 26 27 26 29 31 33 34 35
2 3 4 5 6 6 6 7 7 6 6 8 9 7 5 7 5 8 8 6 8 9 11 11 10 9 9 9 9 13 16 20 22 22 22 23 25 26 28 29 31 32 33 33
6 8 9 10 11 13 14 13 10 6 7 12 8 6 7 6 6 7 8 9 9 9 9 10 10 11 12 13 14 17 18 19 20 20 22 23 25 26 28 28 28 28 29 31
Wind_Direction
307 315 314 308 316 290 282 271 247 229 200 187 190 191 202 204 190 181 191 202 209 205 201 207 210 214 211 213 209 203 208 219 212 210 217 215 221 215 207 195 200 217 203 216
316 325 319 321 328 303 286 291 243 207 207 185 190 197 198 202 199 193 187 195 206 216 219 206 214 216 215 215 202 199 198 209 158 190 221 221 220 220 221 218 228 213 190 216
324 334 327 331 332 308 301 306 230 182 193 194 195 195 201 201 203 205 204 192 190 194 205 214 219 216 216 212 204 197 205 211 210 209 219 218 214 219 221 221 227 223 221 230
331 334 333 334 337 322 304 316 255 190 192 190 207 202 209 207 200 205 208 215 210 211 210 212 217 215 206 201 203 207 208 217 211 222 228 220 226 232 227 224 229 231 245 250
333 338 338 341 338 336 325 318 317 246 176 194 190 187 207 214 213 212 215 222 225 222 223 226 216 212 208 218 210 210 216 217 215 201 193 204 212 215 216 228 236 242 246 246
341 340 340 341 343 345 353 332 321 341 219 206 201 204 209 211 210 208 216 220 225 228 228 235 239 240 236 233 242 240 231 234 225 213 213 224 244 231 233 233 240 242 238 249
349 340 335 340 343 347 352 337 334 319 238 215 215 213 210 220 223 219 206 207 203 203 207 205 205 195 196 198 202 212 221 215 215 214 187 215 242 240 240 235 240 244 249 251
331 344 337 336 343 346 341 344 294 320 222 148 196 219 225 227 216 220 216 217 216 215 212 208 199 200 206 209 211 206 210 214 215 218 212 244 252 247 238 236 241 244 245 247
327 329 332 336 334 334 338 336 271 267 210 174 155 152 191 206 211 208 215 211 214 213 215 209 222 224 228 231 233 229 223 221 218 209 203 209 247 239 232 227 231 234 235 237
328 322 321 329 331 335 323 326 271 246 241 167 170 175 174 190 200 205 205 205 204 209 203 190 180 191 200 198 210 213 219 224 216 213 212 220 216 200 195 192 239 219 221 228
335 332 312 313 324 328 324 317 302 223 209 175 180 186 174 168 188 187 173 186 199 197 203 190 166 168 172 172 179 179 189 176 180 180 155 201 188 182 194 196 182 158 184 204
337 333 333 304 316 314 326 326 299 206 177 169 157 157 163 164 177 172 169 177 173 173 178 159 155 150 162 168 157 171 171 182 175 178 191 161 171 182 176 176 189 199 216 232
338 330 331 312 305 309 327 325 279 211 184 163 165 156 154 147 167 164 177 170 173 170 166 164 150 150 164 162 172 176 174 177 170 155 158 161 172 188 205 228 251 238 239 248
350 345 343 325 274 304 310 326 257 200 174 164 162 179 166 160 146 159 142 146 132 147 152 161 161 159 175 166 171 180 169 178 173 178 180 193 206 223 246 257 258 261 262 259
2 4 1 360 337 300 330 317 334 201 194 179 163 165 176 170 163 167 156 153 165 166 165 160 157 155 161 163 162 177 182 190 193 201 204 219 232 240 246 254 257 259 261 265
14 6 6 7 319 311 323 337 343 226 215 185 167 176 181 190 182 179 180 183 177 173 172 166 162 161 157 175 184 187 197 199 209 217 225 232 239 254 262 264 268 271 275 279
356 3 0 9 36 33 355 9 90 137 210 190 185 175 180 194 195 191 196 200 202 207 208 207 202 203 207 214 198 189 200 208 204 213 227 236 248 263 265 263 264 267 272 275
335 1 2 350 25 72 86 76 32 35 350 170 141 176 179 191 202 202 206 215 219 223 219 214 224 230 235 232 219 213 219 223 235 241 243 246 259 264 257 257 261 266 273 276
313 325 339 346 338 357 90 120 166 164 58 57 98 149 181 189 199 208 212 215 209 219 216 209 211 208 207 206 200 210 225 235 243 248 252 258 260 260 261 262 266 271 274 277
329 323 309 278 298 314 327 283 234 176 174 169 155 157 176 186 198 201 200 214 209 211 209 205 216 222 226 231 234 234 234 235 238 244 250 255 259 263 265 266 270 274 277 280
317 327 314 295 276 257 250 246 224 202 194 197 193 190 189 187 195 194 194 190 194 202 201 199 206 224 228 233 242 243 242 244 249 252 256 260 264 268 269 271 275 278 281 283
310 303 308 308 278 238 231 226 224 217 218 223 214 210 205 199 192 181 191 183 188 196 184 189 211 237 240 241 238 237 241 246 251 256 260 262 268 271 274 279 283 286 288 289
317 310 304 299 273 229 219 219 198 178 180 188 213 208 206 198 197 188 181 194 195 169 185 201 225 243 237 229 231 235 243 251 254 257 263 269 277 282 286 289 290 290 290 290
322 274 265 279 252 221 194 196 178 206 215 197 194 189 189 188 185 174 190 189 182 201 211 219 233 229 226 226 230 235 240 250 260 271 283 289 290 291 292 292 292 292 294 295
305 247 273 274 276 262 248 241 238 230 219 200 178 174 177 174 173 181 188 183 201 206 217 212 207 209 216 217 218 230 254 275 284 287 290 291 292 294 295 296 297 299 300 300
269 245 274 300 293 297 288 262 242 231 226 211 199 194 193 199 199 198 193 190 201 210 202 199 203 202 204 218 247 269 278 286 290 292 294 296 298 300 301 301 301 300 300 298
2 343 333 318 296 291 291 285 294 293 239 214 207 210 207 203 209 203 203 213 220 209 203 202 208 221 236 256 268 283 290 292 296 299 301 301 300 300 300 302 301 302 302 301